Time,TemperatureF,DewpointF,PressureIn,WindDirection,WindDirectionDegrees,WindSpeedMPH,WindSpeedGustMPH,Humidity,HourlyPrecipIn,Conditions,Clouds,dailyrainin,SoftwareType,DateUTC
2013-06-07 00:03:00,56.0,-99.9,-100.00,North,-999,-999.0,-999.0,-999,0.03,,,0.04,,2013-06-07 04:03:00,
2013-06-07 00:13:00,56.0,-99.9,-100.00,North,-999,-999.0,-999.0,-999,0.03,,,0.04,,2013-06-07 04:13:00,
2013-06-07 00:23:00,56.0,-99.9,-100.00,North,-999,-999.0,-999.0,-999,0.03,,,0.04,,2013-06-07 04:23:00,
2013-06-07 00:30:00,55.0,-99.9,-100.00,North,-999,-999.0,-999.0,-999,0.04,,,0.08,,2013-06-07 04:30:00,
2013-06-07 00:33:00,56.0,-99.9,-100.00,North,-999,-999.0,-999.0,-999,0.03,,,0.04,,2013-06-07 04:33:00,
2013-06-07 00:42:00,56.0,-99.9,-100.00,North,-999,-999.0,-999.0,-999,0.03,,,0.04,,2013-06-07 04:42:00,
2013-06-07 00:54:00,55.0,-99.9,-100.00,North,-999,-999.0,-999.0,-999,0.04,,,0.08,,2013-06-07 04:54:00,
2013-06-07 01:03:00,55.0,-99.9,-100.00,North,-999,-999.0,-999.0,-999,0.04,,,0.08,,2013-06-07 05:03:00,
2013-06-07 01:12:00,55.0,-99.9,-100.00,North,-999,-999.0,-999.0,-999,0.04,,,0.08,,2013-06-07 05:12:00,
2013-06-07 01:23:00,55.0,-99.9,-100.00,North,-999,-999.0,-999.0,-999,0.04,,,0.08,,2013-06-07 05:23:00,
2013-06-07 01:30:00,54.0,-99.9,-100.00,North,-999,-999.0,-999.0,-999,0.04,,,0.12,,2013-06-07 05:30:00,
2013-06-07 01:52:00,54.0,-99.9,-100.00,North,-999,-999.0,-999.0,-999,0.04,,,0.12,,2013-06-07 05:52:00,
2013-06-07 02:02:00,54.0,-99.9,-100.00,North,-999,-999.0,-999.0,-999,0.04,,,0.12,,2013-06-07 06:02:00,
2013-06-07 02:13:00,54.0,-99.9,-100.00,North,-999,-999.0,-999.0,-999,0.04,,,0.12,,2013-06-07 06:13:00,
2013-06-07 02:23:00,54.0,-99.9,-100.00,North,-999,-999.0,-999.0,-999,0.04,,,0.12,,2013-06-07 06:23:00,
2013-06-07 02:30:00,53.0,-99.9,-100.00,North,-999,-999.0,-999.0,-999,0.00,,,0.12,,2013-06-07 06:30:00,
2013-06-07 02:52:00,53.0,-99.9,-100.00,North,-999,-999.0,-999.0,-999,0.00,,,0.12,,2013-06-07 06:52:00,
2013-06-07 03:02:00,53.0,-99.9,-100.00,North,-999,-999.0,-999.0,-999,0.00,,,0.12,,2013-06-07 07:02:00,
2013-06-07 03:12:00,53.0,-99.9,-100.00,North,-999,-999.0,-999.0,-999,0.00,,,0.12,,2013-06-07 07:12:00,
2013-06-07 03:22:00,53.0,-99.9,-100.00,North,-999,-999.0,-999.0,-999,0.00,,,0.12,,2013-06-07 07:22:00,
2013-06-07 03:30:00,53.0,-99.9,-100.00,North,-999,-999.0,-999.0,-999,0.00,,,0.12,,2013-06-07 07:30:00,
2013-06-07 03:52:00,53.0,-99.9,-100.00,North,-999,-999.0,-999.0,-999,0.00,,,0.12,,2013-06-07 07:52:00,
2013-06-07 04:02:00,53.0,-99.9,-100.00,North,-999,-999.0,-999.0,-999,0.00,,,0.12,,2013-06-07 08:02:00,
2013-06-07 04:12:00,53.0,-99.9,-100.00,North,-999,-999.0,-999.0,-999,0.00,,,0.12,,2013-06-07 08:12:00,
2013-06-07 04:22:00,53.0,-99.9,-100.00,North,-999,-999.0,-999.0,-999,0.00,,,0.12,,2013-06-07 08:22:00,
2013-06-07 04:30:00,53.0,-99.9,-100.00,North,-999,-999.0,-999.0,-999,0.00,,,0.12,,2013-06-07 08:30:00,
2013-06-07 04:52:00,53.0,-99.9,-100.00,North,-999,-999.0,-999.0,-999,0.00,,,0.12,,2013-06-07 08:52:00,
2013-06-07 05:02:00,53.0,-99.9,-100.00,North,-999,-999.0,-999.0,-999,0.00,,,0.12,,2013-06-07 09:02:00,
2013-06-07 05:12:00,53.0,-99.9,-100.00,North,-999,-999.0,-999.0,-999,0.00,,,0.12,,2013-06-07 09:12:00,
2013-06-07 05:22:00,53.0,-99.9,-100.00,North,-999,-999.0,-999.0,-999,0.00,,,0.12,,2013-06-07 09:22:00,
2013-06-07 05:53:00,53.0,-99.9,-100.00,North,-999,-999.0,-999.0,-999,0.00,,,0.12,,2013-06-07 09:53:00,
2013-06-07 06:03:00,53.0,-99.9,-100.00,North,-999,-999.0,-999.0,-999,0.00,,,0.12,,2013-06-07 10:03:00,
2013-06-07 06:13:00,53.0,-99.9,-100.00,North,-999,-999.0,-999.0,-999,0.00,,,0.12,,2013-06-07 10:13:00,
2013-06-07 06:23:00,53.0,-99.9,-100.00,North,-999,-999.0,-999.0,-999,0.00,,,0.12,,2013-06-07 10:23:00,
2013-06-07 06:30:00,53.0,-99.9,-100.00,North,-999,-999.0,-999.0,-999,0.01,,,0.13,,2013-06-07 10:30:00,
2013-06-07 06:33:00,53.0,-99.9,-100.00,North,-999,-999.0,-999.0,-999,0.00,,,0.12,,2013-06-07 10:33:00,
2013-06-07 06:43:00,53.0,-99.9,-100.00,North,-999,-999.0,-999.0,-999,0.00,,,0.12,,2013-06-07 10:43:00,
2013-06-07 06:53:00,53.0,-99.9,-100.00,North,-999,-999.0,-999.0,-999,0.01,,,0.13,,2013-06-07 10:53:00,
2013-06-07 07:02:00,53.0,-99.9,-100.00,North,-999,-999.0,-999.0,-999,0.01,,,0.13,,2013-06-07 11:02:00,
2013-06-07 07:13:00,53.0,-99.9,-100.00,North,-999,-999.0,-999.0,-999,0.01,,,0.13,,2013-06-07 11:13:00,
2013-06-07 07:22:00,53.0,-99.9,-100.00,North,-999,-999.0,-999.0,-999,0.01,,,0.13,,2013-06-07 11:22:00,
2013-06-07 07:30:00,54.0,-99.9,-100.00,North,-999,-999.0,-999.0,-999,0.01,,,0.14,,2013-06-07 11:30:00,
2013-06-07 07:53:00,54.0,-99.9,-100.00,North,-999,-999.0,-999.0,-999,0.01,,,0.14,,2013-06-07 11:53:00,
2013-06-07 08:02:00,54.0,-99.9,-100.00,North,-999,-999.0,-999.0,-999,0.01,,,0.14,,2013-06-07 12:02:00,
2013-06-07 08:13:00,54.0,-99.9,-100.00,North,-999,-999.0,-999.0,-999,0.01,,,0.14,,2013-06-07 12:13:00,
2013-06-07 08:22:00,54.0,-99.9,-100.00,North,-999,-999.0,-999.0,-999,0.01,,,0.14,,2013-06-07 12:22:00,
2013-06-07 08:30:00,54.0,-99.9,-100.00,North,-999,-999.0,-999.0,-999,0.02,,,0.16,,2013-06-07 12:30:00,
2013-06-07 08:52:00,54.0,-99.9,-100.00,North,-999,-999.0,-999.0,-999,0.02,,,0.16,,2013-06-07 12:52:00,
2013-06-07 09:02:00,54.0,-99.9,-100.00,North,-999,-999.0,-999.0,-999,0.02,,,0.16,,2013-06-07 13:02:00,
2013-06-07 09:13:00,54.0,-99.9,-100.00,North,-999,-999.0,-999.0,-999,0.02,,,0.16,,2013-06-07 13:13:00,
2013-06-07 09:22:00,54.0,-99.9,-100.00,North,-999,-999.0,-999.0,-999,0.02,,,0.16,,2013-06-07 13:22:00,
2013-06-07 09:30:00,52.0,-99.9,-100.00,North,-999,-999.0,-999.0,-999,0.03,,,0.19,,2013-06-07 13:30:00,
2013-06-07 09:53:00,52.0,-99.9,-100.00,North,-999,-999.0,-999.0,-999,0.03,,,0.19,,2013-06-07 13:53:00,
2013-06-07 10:03:00,52.0,-99.9,-100.00,North,-999,-999.0,-999.0,-999,0.03,,,0.19,,2013-06-07 14:03:00,
2013-06-07 10:13:00,52.0,-99.9,-100.00,North,-999,-999.0,-999.0,-999,0.03,,,0.19,,2013-06-07 14:13:00,
2013-06-07 10:23:00,52.0,-99.9,-100.00,North,-999,-999.0,-999.0,-999,0.03,,,0.19,,2013-06-07 14:23:00,
2013-06-07 10:30:00,52.0,-99.9,-100.00,North,-999,-999.0,-999.0,-999,0.00,,,0.19,,2013-06-07 14:30:00,
2013-06-07 10:52:00,52.0,-99.9,-100.00,North,-999,-999.0,-999.0,-999,0.00,,,0.19,,2013-06-07 14:52:00,
2013-06-07 11:03:00,52.0,-99.9,-100.00,North,-999,-999.0,-999.0,-999,0.00,,,0.19,,2013-06-07 15:03:00,
2013-06-07 11:13:00,52.0,-99.9,-100.00,North,-999,-999.0,-999.0,-999,0.00,,,0.19,,2013-06-07 15:13:00,
2013-06-07 11:23:00,52.0,-99.9,-100.00,North,-999,-999.0,-999.0,-999,0.00,,,0.19,,2013-06-07 15:23:00,
2013-06-07 11:53:00,52.0,-99.9,-100.00,North,-999,-999.0,-999.0,-999,0.05,,,0.24,,2013-06-07 15:53:00,
2013-06-07 12:03:00,51.0,-99.9,-100.00,North,-999,-999.0,-999.0,-999,0.04,,,0.24,,2013-06-07 16:03:00,
2013-06-07 12:13:00,51.0,-99.9,-100.00,North,-999,-999.0,-999.0,-999,0.04,,,0.24,,2013-06-07 16:13:00,
2013-06-07 12:23:00,51.0,-99.9,-100.00,North,-999,-999.0,-999.0,-999,0.04,,,0.24,,2013-06-07 16:23:00,
2013-06-07 12:30:00,52.0,-99.9,-100.00,North,-999,-999.0,-999.0,-999,0.04,,,0.28,,2013-06-07 16:30:00,
2013-06-07 12:33:00,51.0,-99.9,-100.00,North,-999,-999.0,-999.0,-999,0.04,,,0.24,,2013-06-07 16:33:00,
2013-06-07 12:43:00,51.0,-99.9,-100.00,North,-999,-999.0,-999.0,-999,0.04,,,0.24,,2013-06-07 16:43:00,
2013-06-07 12:53:00,52.0,-99.9,-100.00,North,-999,-999.0,-999.0,-999,0.04,,,0.28,,2013-06-07 16:53:00,
2013-06-07 13:03:00,52.0,-99.9,-100.00,North,-999,-999.0,-999.0,-999,0.04,,,0.28,,2013-06-07 17:03:00,
2013-06-07 13:13:00,52.0,-99.9,-100.00,North,-999,-999.0,-999.0,-999,0.04,,,0.28,,2013-06-07 17:13:00,
2013-06-07 13:23:00,52.0,-99.9,-100.00,North,-999,-999.0,-999.0,-999,0.04,,,0.28,,2013-06-07 17:23:00,
2013-06-07 13:30:00,52.0,-99.9,-100.00,North,-999,-999.0,-999.0,-999,0.12,,,0.40,,2013-06-07 17:30:00,
2013-06-07 13:53:00,52.0,-99.9,-100.00,North,-999,-999.0,-999.0,-999,0.12,,,0.40,,2013-06-07 17:53:00,
2013-06-07 14:12:00,52.0,-99.9,-100.00,North,-999,-999.0,-999.0,-999,0.12,,,0.40,,2013-06-07 18:12:00,
2013-06-07 14:22:00,52.0,-99.9,-100.00,North,-999,-999.0,-999.0,-999,0.12,,,0.40,,2013-06-07 18:22:00,
2013-06-07 14:30:00,53.0,-99.9,-100.00,North,-999,-999.0,-999.0,-999,0.13,,,0.53,,2013-06-07 18:30:00,
2013-06-07 15:05:00,53.0,-99.9,-100.00,North,-999,-999.0,-999.0,-999,0.13,,,0.53,,2013-06-07 19:05:00,
2013-06-07 15:17:00,53.0,-99.9,-100.00,North,-999,-999.0,-999.0,-999,0.13,,,0.53,,2013-06-07 19:17:00,
2013-06-07 15:30:00,54.0,-99.9,-100.00,North,-999,-999.0,-999.0,-999,0.08,,,0.61,,2013-06-07 19:30:00,
2013-06-07 16:02:00,54.0,-99.9,-100.00,North,-999,-999.0,-999.0,-999,0.08,,,0.61,,2013-06-07 20:02:00,
2013-06-07 16:10:00,54.0,-99.9,-100.00,North,-999,-999.0,-999.0,-999,0.08,,,0.61,,2013-06-07 20:10:00,
2013-06-07 16:28:00,54.0,-99.9,-100.00,North,-999,-999.0,-999.0,-999,0.08,,,0.61,,2013-06-07 20:28:00,
2013-06-07 16:30:00,54.0,-99.9,-100.00,North,-999,-999.0,-999.0,-999,0.05,,,0.66,,2013-06-07 20:30:00,
2013-06-07 16:59:00,54.0,-99.9,-100.00,North,-999,-999.0,-999.0,-999,0.05,,,0.66,,2013-06-07 20:59:00,
2013-06-07 17:12:00,54.0,-99.9,-100.00,North,-999,-999.0,-999.0,-999,0.05,,,0.66,,2013-06-07 21:12:00,
2013-06-07 17:22:00,54.0,-99.9,-100.00,North,-999,-999.0,-999.0,-999,0.05,,,0.66,,2013-06-07 21:22:00,
2013-06-07 17:45:00,55.0,-99.9,-100.00,North,-999,-999.0,-999.0,-999,0.08,,,0.76,,2013-06-07 21:45:00,
2013-06-07 18:07:00,55.0,-99.9,-100.00,North,-999,-999.0,-999.0,-999,0.08,,,0.74,,2013-06-07 22:07:00,
2013-06-07 18:25:00,55.0,-99.9,-100.00,North,-999,-999.0,-999.0,-999,0.08,,,0.76,,2013-06-07 22:25:00,
2013-06-07 18:32:00,55.0,-99.9,-100.00,North,-999,-999.0,-999.0,-999,0.08,,,0.76,,2013-06-07 22:32:00,
2013-06-07 18:41:00,55.0,-99.9,-100.00,North,-999,-999.0,-999.0,-999,0.08,,,0.76,,2013-06-07 22:41:00,
2013-06-07 19:04:00,54.0,-99.9,-100.00,North,-999,-999.0,-999.0,-999,0.08,,,0.82,,2013-06-07 23:04:00,
2013-06-07 19:21:00,54.0,-99.9,-100.00,North,-999,-999.0,-999.0,-999,0.08,,,0.82,,2013-06-07 23:21:00,
2013-06-07 19:30:00,53.0,-99.9,-100.00,North,-999,-999.0,-999.0,-999,0.13,,,0.95,,2013-06-07 23:30:00,
2013-06-07 20:17:00,53.0,-99.9,-100.00,North,-999,-999.0,-999.0,-999,0.13,,,0.95,,2013-06-08 00:17:00,
2013-06-07 20:30:00,53.0,-99.9,-100.00,North,-999,-999.0,-999.0,-999,0.14,,,1.09,,2013-06-08 00:30:00,
2013-06-07 21:05:00,53.0,-99.9,-100.00,North,-999,-999.0,-999.0,-999,0.14,,,1.09,,2013-06-08 01:05:00,
2013-06-07 21:23:00,53.0,-99.9,-100.00,North,-999,-999.0,-999.0,-999,0.14,,,1.09,,2013-06-08 01:23:00,
2013-06-07 21:30:00,53.0,-99.9,-100.00,North,-999,-999.0,-999.0,-999,0.02,,,1.11,,2013-06-08 01:30:00,
2013-06-07 22:08:00,53.0,-99.9,-100.00,North,-999,-999.0,-999.0,-999,0.02,,,1.11,,2013-06-08 02:08:00,
2013-06-07 22:14:00,53.0,-99.9,-100.00,North,-999,-999.0,-999.0,-999,0.02,,,1.11,,2013-06-08 02:14:00,
2013-06-07 22:19:00,53.0,-99.9,-100.00,North,-999,-999.0,-999.0,-999,0.02,,,1.11,,2013-06-08 02:19:00,
2013-06-07 22:30:00,52.0,-99.9,-100.00,North,-999,-999.0,-999.0,-999,0.02,,,1.12,,2013-06-08 02:30:00,
2013-06-07 23:15:00,52.0,-99.9,-100.00,North,-999,-999.0,-999.0,-999,0.02,,,1.12,,2013-06-08 03:15:00,